contact:dominique.lefevre@mio.osupytheas.fr, maurice.libes@osupytheas.fr, didier.mallarino@osupytheas.fr
Project:EMSO http://www.emso-fr.org/EMSO-France
Depth: 2436.0 m
Title:EMSO Ligure Ouest : Data MII capteur MICROCAT
DateTime_Computer,Latitude,Longitude,Temperature,Conductivity,Pressure,DateTime_Instrument
DateTime_Computer,Latitude,Longitude,degC,S m-1,dbar,DateTime_Instrument
2022-01-30T00:02:39Z,42.805,6.029,13.3003,4.60027,2469.806,2022-1-30T02:04:11Z
2022-01-30T00:05:42Z,42.805,6.029,13.3004,4.60027,2469.83,2022-1-30T02:07:15Z
2022-01-30T00:08:45Z,42.805,6.029,13.3004,4.60026,2469.83,2022-1-30T02:10:18Z
2022-01-30T00:11:49Z,42.805,6.029,13.3000,4.60027,2469.783,2022-1-30T02:13:21Z
2022-01-30T00:14:52Z,42.805,6.029,13.2999,4.60026,2469.806,2022-1-30T02:16:24Z
2022-01-30T00:17:55Z,42.805,6.029,13.3000,4.60032,2469.806,2022-1-30T02:19:27Z
2022-01-30T00:20:58Z,42.805,6.029,13.3003,4.60027,2469.806,2022-1-30T02:22:30Z
2022-01-30T00:24:01Z,42.805,6.029,13.3001,4.60026,2469.806,2022-1-30T02:25:33Z
2022-01-30T00:27:04Z,42.805,6.029,13.3001,4.60026,2469.83,2022-1-30T02:28:36Z
2022-01-30T00:30:07Z,42.805,6.029,13.2998,4.60029,2469.83,2022-1-30T02:31:40Z
2022-01-30T00:33:10Z,42.805,6.029,13.3003,4.60026,2469.83,2022-1-30T02:34:43Z
2022-01-30T00:36:14Z,42.805,6.029,13.3001,4.60027,2469.83,2022-1-30T02:37:46Z
2022-01-30T00:39:17Z,42.805,6.029,13.2999,4.60026,2469.821,2022-1-30T02:40:49Z
2022-01-30T00:42:20Z,42.805,6.029,13.3001,4.60026,2469.844,2022-1-30T02:43:52Z
2022-01-30T00:45:23Z,42.805,6.029,13.3001,4.60031,2469.783,2022-1-30T02:46:55Z
2022-01-30T00:48:26Z,42.805,6.029,13.3004,4.60026,2469.867,2022-1-30T02:49:58Z
2022-01-30T00:51:29Z,42.805,6.029,13.3000,4.60026,2469.806,2022-1-30T02:53:01Z
2022-01-30T00:54:32Z,42.805,6.029,13.3000,4.60028,2469.853,2022-1-30T02:56:05Z
2022-01-30T00:57:35Z,42.805,6.029,13.3000,4.60027,2469.844,2022-1-30T02:59:08Z
2022-01-30T01:00:39Z,42.805,6.029,13.3000,4.60029,2469.867,2022-1-30T03:02:11Z
2022-01-30T01:03:42Z,42.805,6.029,13.3002,4.60027,2469.89,2022-1-30T03:05:14Z
2022-01-30T01:06:45Z,42.805,6.029,13.2999,4.60026,2469.89,2022-1-30T03:08:17Z
2022-01-30T01:09:48Z,42.805,6.029,13.2996,4.60028,2469.844,2022-1-30T03:11:20Z
2022-01-30T01:12:51Z,42.805,6.029,13.2998,4.60028,2469.839,2022-1-30T03:14:23Z
2022-01-30T01:15:54Z,42.805,6.029,13.3001,4.60030,2469.867,2022-1-30T03:17:26Z
2022-01-30T01:18:57Z,42.805,6.029,13.2999,4.60029,2469.853,2022-1-30T03:20:30Z
2022-01-30T01:22:00Z,42.805,6.029,13.2999,4.60028,2469.876,2022-1-30T03:23:33Z
2022-01-30T01:25:04Z,42.805,6.029,13.2999,4.60026,2469.853,2022-1-30T03:26:36Z
2022-01-30T01:28:07Z,42.805,6.029,13.2998,4.60029,2469.83,2022-1-30T03:29:39Z
2022-01-30T01:31:10Z,42.805,6.029,13.3004,4.60028,2469.876,2022-1-30T03:32:42Z
2022-01-30T01:34:13Z,42.805,6.029,13.3002,4.60033,2469.853,2022-1-30T03:35:45Z
2022-01-30T01:37:16Z,42.805,6.029,13.2999,4.60026,2469.853,2022-1-30T03:38:48Z
2022-01-30T01:40:19Z,42.805,6.029,13.3000,4.60026,2469.9,2022-1-30T03:41:51Z
2022-01-30T01:43:22Z,42.805,6.029,13.3004,4.60027,2469.923,2022-1-30T03:44:55Z
2022-01-30T01:46:25Z,42.805,6.029,13.2999,4.60026,2469.83,2022-1-30T03:47:58Z
2022-01-30T01:49:29Z,42.805,6.029,13.3005,4.60028,2469.9,2022-1-30T03:51:01Z
2022-01-30T01:52:32Z,42.805,6.029,13.2996,4.60028,2469.914,2022-1-30T03:54:04Z
2022-01-30T01:55:35Z,42.805,6.029,13.3000,4.60029,2469.876,2022-1-30T03:57:07Z
2022-01-30T01:58:38Z,42.805,6.029,13.3003,4.60027,2469.876,2022-1-30T04:00:10Z
2022-01-30T02:01:41Z,42.805,6.029,13.3005,4.60026,2469.9,2022-1-30T04:03:13Z
2022-01-30T02:04:44Z,42.805,6.029,13.3001,4.60027,2469.853,2022-1-30T04:06:16Z
2022-01-30T02:07:47Z,42.805,6.029,13.2999,4.60028,2469.9,2022-1-30T04:09:19Z
2022-01-30T02:10:50Z,42.805,6.029,13.3004,4.60028,2469.9,2022-1-30T04:12:23Z
2022-01-30T02:13:54Z,42.805,6.029,13.3000,4.60029,2469.9,2022-1-30T04:15:26Z
2022-01-30T02:16:57Z,42.805,6.029,13.2999,4.60029,2469.9,2022-1-30T04:18:29Z
2022-01-30T02:20:00Z,42.805,6.029,13.3001,4.60026,2469.923,2022-1-30T04:21:32Z
2022-01-30T02:23:03Z,42.805,6.029,13.2998,4.60026,2469.923,2022-1-30T04:24:35Z
2022-01-30T02:26:06Z,42.805,6.029,13.3000,4.60027,2469.923,2022-1-30T04:27:38Z
2022-01-30T02:29:09Z,42.805,6.029,13.2999,4.60027,2469.909,2022-1-30T04:30:41Z
2022-01-30T02:32:12Z,42.805,6.029,13.3001,4.60031,2469.923,2022-1-30T04:33:44Z
2022-01-30T02:35:15Z,42.805,6.029,13.3001,4.60028,2469.923,2022-1-30T04:36:48Z
2022-01-30T02:38:18Z,42.805,6.029,13.3000,4.60026,2469.923,2022-1-30T04:39:51Z
2022-01-30T02:41:22Z,42.805,6.029,13.3004,4.60033,2469.947,2022-1-30T04:42:54Z
2022-01-30T02:44:25Z,42.805,6.029,13.2998,4.60026,2469.914,2022-1-30T04:45:57Z
2022-01-30T02:47:28Z,42.805,6.029,13.3000,4.60031,2469.923,2022-1-30T04:49:00Z
2022-01-30T02:50:31Z,42.805,6.029,13.3000,4.60028,2469.947,2022-1-30T04:52:03Z
2022-01-30T02:53:34Z,42.805,6.029,13.2998,4.60036,2469.96,2022-1-30T04:55:06Z
2022-01-30T02:56:37Z,42.805,6.029,13.3000,4.60029,2469.9,2022-1-30T04:58:09Z
2022-01-30T02:59:40Z,42.805,6.029,13.3006,4.60027,2469.947,2022-1-30T05:01:13Z
2022-01-30T03:02:43Z,42.805,6.029,13.3002,4.60028,2469.923,2022-1-30T05:04:16Z
2022-01-30T03:05:47Z,42.805,6.029,13.3001,4.60028,2469.937,2022-1-30T05:07:19Z
2022-01-30T03:08:50Z,42.805,6.029,13.3000,4.60026,2469.96,2022-1-30T05:10:22Z
2022-01-30T03:11:53Z,42.805,6.029,13.3002,4.60037,2469.923,2022-1-30T05:13:25Z
2022-01-30T03:14:56Z,42.805,6.029,13.3001,4.60029,2469.937,2022-1-30T05:16:28Z
2022-01-30T03:17:59Z,42.805,6.029,13.3004,4.60026,2469.923,2022-1-30T05:19:31Z
2022-01-30T03:21:02Z,42.805,6.029,13.3004,4.60028,2469.96,2022-1-30T05:22:34Z
2022-01-30T03:24:05Z,42.805,6.029,13.3006,4.60027,2469.96,2022-1-30T05:25:38Z
2022-01-30T03:27:08Z,42.805,6.029,13.3001,4.60029,2469.923,2022-1-30T05:28:41Z
2022-01-30T03:30:12Z,42.805,6.029,13.3003,4.60030,2469.923,2022-1-30T05:31:44Z
2022-01-30T03:33:15Z,42.805,6.029,13.3004,4.60028,2469.984,2022-1-30T05:34:47Z
2022-01-30T03:36:18Z,42.805,6.029,13.3000,4.60027,2469.947,2022-1-30T05:37:50Z
2022-01-30T03:39:21Z,42.805,6.029,13.3000,4.60029,2469.97,2022-1-30T05:40:53Z
2022-01-30T03:42:24Z,42.805,6.029,13.3004,4.60027,2469.984,2022-1-30T05:43:56Z
2022-01-30T03:45:27Z,42.805,6.029,13.2998,4.60027,2469.993,2022-1-30T05:46:59Z
2022-01-30T03:48:30Z,42.805,6.029,13.2999,4.60027,2469.947,2022-1-30T05:50:03Z
2022-01-30T03:51:33Z,42.805,6.029,13.3000,4.60026,2469.947,2022-1-30T05:53:06Z
2022-01-30T03:54:37Z,42.805,6.029,13.3006,4.60027,2469.947,2022-1-30T05:56:09Z
2022-01-30T03:57:40Z,42.805,6.029,13.3000,4.60028,2469.97,2022-1-30T05:59:12Z
2022-01-30T04:00:43Z,42.805,6.029,13.3003,4.60028,2469.984,2022-1-30T06:02:15Z
2022-01-30T04:03:46Z,42.805,6.029,13.3005,4.60028,2469.97,2022-1-30T06:05:18Z
2022-01-30T04:06:49Z,42.805,6.029,13.2996,4.60028,2470.03,2022-1-30T06:08:21Z
2022-01-30T04:09:52Z,42.805,6.029,13.3002,4.60027,2470.007,2022-1-30T06:11:24Z
2022-01-30T04:12:55Z,42.805,6.029,13.2998,4.60029,2469.993,2022-1-30T06:14:27Z
2022-01-30T04:15:58Z,42.805,6.029,13.3002,4.60028,2469.993,2022-1-30T06:17:31Z
2022-01-30T04:19:01Z,42.805,6.029,13.3000,4.60027,2469.993,2022-1-30T06:20:34Z
2022-01-30T04:22:05Z,42.805,6.029,13.3004,4.60028,2470.017,2022-1-30T06:23:37Z
2022-01-30T04:25:08Z,42.805,6.029,13.3002,4.60030,2469.993,2022-1-30T06:26:40Z
2022-01-30T04:28:11Z,42.805,6.029,13.3001,4.60028,2469.993,2022-1-30T06:29:43Z
2022-01-30T04:31:14Z,42.805,6.029,13.3002,4.60029,2470.003,2022-1-30T06:32:46Z
2022-01-30T04:34:17Z,42.805,6.029,13.3000,4.60028,2469.993,2022-1-30T06:35:49Z
2022-01-30T04:37:20Z,42.805,6.029,13.2998,4.60030,2470.03,2022-1-30T06:38:52Z
2022-01-30T04:40:23Z,42.805,6.029,13.2999,4.60032,2469.993,2022-1-30T06:41:56Z
2022-01-30T04:43:26Z,42.805,6.029,13.3004,4.60028,2470.017,2022-1-30T06:44:59Z
2022-01-30T04:46:30Z,42.805,6.029,13.3000,4.60028,2469.97,2022-1-30T06:48:02Z
2022-01-30T04:49:33Z,42.805,6.029,13.3004,4.60031,2470.03,2022-1-30T06:51:05Z
2022-01-30T04:52:36Z,42.805,6.029,13.3001,4.60028,2469.993,2022-1-30T06:54:08Z
2022-01-30T04:55:39Z,42.805,6.029,13.3000,4.60029,2470.03,2022-1-30T06:57:11Z
2022-01-30T04:58:42Z,42.805,6.029,13.3001,4.60029,2470.04,2022-1-30T07:00:14Z
2022-01-30T05:01:45Z,42.805,6.029,13.3004,4.60027,2470.017,2022-1-30T07:03:17Z
2022-01-30T05:04:48Z,42.805,6.029,13.3000,4.60029,2470.017,2022-1-30T07:06:21Z
2022-01-30T05:07:51Z,42.805,6.029,13.3000,4.60028,2470.077,2022-1-30T07:09:24Z
2022-01-30T05:10:55Z,42.805,6.029,13.3004,4.60029,2470.03,2022-1-30T07:12:27Z
2022-01-30T05:13:58Z,42.805,6.029,13.2999,4.60029,2470.017,2022-1-30T07:15:30Z
2022-01-30T05:17:01Z,42.805,6.029,13.2999,4.60026,2470.03,2022-1-30T07:18:33Z
2022-01-30T05:20:04Z,42.805,6.029,13.3001,4.60027,2470.017,2022-1-30T07:21:36Z
2022-01-30T05:23:07Z,42.805,6.029,13.3004,4.60027,2470.04,2022-1-30T07:24:39Z
2022-01-30T05:26:10Z,42.805,6.029,13.3000,4.60028,2470.053,2022-1-30T07:27:42Z
2022-01-30T05:29:13Z,42.805,6.029,13.3003,4.60028,2470.017,2022-1-30T07:30:46Z
2022-01-30T05:32:16Z,42.805,6.029,13.3004,4.60028,2469.993,2022-1-30T07:33:49Z
2022-01-30T05:35:20Z,42.805,6.029,13.3002,4.60027,2470.1,2022-1-30T07:36:52Z
2022-01-30T05:38:23Z,42.805,6.029,13.3000,4.60027,2470.077,2022-1-30T07:39:55Z
2022-01-30T05:41:26Z,42.805,6.029,13.3002,4.60026,2470.04,2022-1-30T07:42:58Z
2022-01-30T05:44:29Z,42.805,6.029,13.3002,4.60028,2470.04,2022-1-30T07:46:01Z
2022-01-30T05:47:32Z,42.805,6.029,13.3002,4.60028,2470.053,2022-1-30T07:49:04Z
2022-01-30T05:50:35Z,42.805,6.029,13.3001,4.60029,2470.04,2022-1-30T07:52:07Z
2022-01-30T05:53:38Z,42.805,6.029,13.3003,4.60029,2470.04,2022-1-30T07:55:11Z
2022-01-30T05:56:41Z,42.805,6.029,13.3003,4.60028,2470.077,2022-1-30T07:58:14Z
2022-01-30T05:59:45Z,42.805,6.029,13.3005,4.60029,2470.063,2022-1-30T08:01:17Z
2022-01-30T06:02:48Z,42.805,6.029,13.3002,4.60029,2470.063,2022-1-30T08:04:20Z
2022-01-30T06:05:51Z,42.805,6.029,13.2999,4.60026,2470.053,2022-1-30T08:07:23Z
2022-01-30T06:08:54Z,42.805,6.029,13.3001,4.60028,2470.063,2022-1-30T08:10:26Z
2022-01-30T06:11:57Z,42.805,6.029,13.2998,4.60027,2470.077,2022-1-30T08:13:29Z
2022-01-30T06:15:00Z,42.805,6.029,13.3001,4.60028,2470.04,2022-1-30T08:16:32Z
2022-01-30T06:18:03Z,42.805,6.029,13.2998,4.60031,2470.063,2022-1-30T08:19:36Z
2022-01-30T06:21:06Z,42.805,6.029,13.3005,4.60029,2470.053,2022-1-30T08:22:39Z
2022-01-30T06:24:10Z,42.805,6.029,13.3000,4.60027,2470.077,2022-1-30T08:25:42Z
2022-01-30T06:27:13Z,42.805,6.029,13.2999,4.60027,2470.04,2022-1-30T08:28:45Z
2022-01-30T06:30:16Z,42.805,6.029,13.2998,4.60029,2470.063,2022-1-30T08:31:48Z
2022-01-30T06:33:19Z,42.805,6.029,13.2999,4.60026,2470.063,2022-1-30T08:34:51Z
2022-01-30T06:36:22Z,42.805,6.029,13.2999,4.60026,2470.063,2022-1-30T08:37:54Z
2022-01-30T06:39:25Z,42.805,6.029,13.3000,4.60027,2470.063,2022-1-30T08:40:57Z
2022-01-30T06:42:28Z,42.805,6.029,13.3005,4.60027,2470.077,2022-1-30T08:44:01Z
2022-01-30T06:45:31Z,42.805,6.029,13.3003,4.60027,2470.087,2022-1-30T08:47:04Z
2022-01-30T06:48:35Z,42.805,6.029,13.3004,4.60027,2470.087,2022-1-30T08:50:07Z
2022-01-30T06:51:38Z,42.805,6.029,13.3000,4.60026,2470.1,2022-1-30T08:53:10Z
2022-01-30T06:54:41Z,42.805,6.029,13.3000,4.60026,2470.087,2022-1-30T08:56:13Z
2022-01-30T06:57:44Z,42.805,6.029,13.3001,4.60029,2470.063,2022-1-30T08:59:16Z
2022-01-30T07:00:47Z,42.805,6.029,13.3004,4.60027,2470.087,2022-1-30T09:02:19Z
2022-01-30T07:03:50Z,42.805,6.029,13.3002,4.60026,2470.077,2022-1-30T09:05:22Z
2022-01-30T07:06:53Z,42.805,6.029,13.3000,4.60026,2470.077,2022-1-30T09:08:26Z
2022-01-30T07:09:56Z,42.805,6.029,13.3004,4.60028,2470.087,2022-1-30T09:11:29Z
2022-01-30T07:12:59Z,42.805,6.029,13.3002,4.60027,2470.147,2022-1-30T09:14:32Z
2022-01-30T07:16:03Z,42.805,6.029,13.2996,4.60030,2470.11,2022-1-30T09:17:35Z
2022-01-30T07:19:06Z,42.805,6.029,13.3003,4.60028,2470.077,2022-1-30T09:20:38Z
2022-01-30T07:22:09Z,42.805,6.029,13.3000,4.60027,2470.087,2022-1-30T09:23:41Z
2022-01-30T07:25:12Z,42.805,6.029,13.3002,4.60026,2470.087,2022-1-30T09:26:44Z
2022-01-30T07:28:15Z,42.805,6.029,13.3004,4.60028,2470.1,2022-1-30T09:29:47Z
2022-01-30T07:31:18Z,42.805,6.029,13.3004,4.60027,2470.087,2022-1-30T09:32:51Z
2022-01-30T07:34:21Z,42.805,6.029,13.3000,4.60026,2470.063,2022-1-30T09:35:54Z
2022-01-30T07:37:24Z,42.805,6.029,13.3001,4.60026,2470.087,2022-1-30T09:38:57Z
2022-01-30T07:40:28Z,42.805,6.029,13.3000,4.60026,2470.077,2022-1-30T09:42:00Z
2022-01-30T07:43:31Z,42.805,6.029,13.3002,4.60026,2470.053,2022-1-30T09:45:03Z
2022-01-30T07:46:34Z,42.805,6.029,13.3000,4.60027,2470.04,2022-1-30T09:48:06Z
2022-01-30T07:49:37Z,42.805,6.029,13.3000,4.60027,2470.087,2022-1-30T09:51:09Z
2022-01-30T07:52:40Z,42.805,6.029,13.3000,4.60028,2470.053,2022-1-30T09:54:12Z
2022-01-30T07:55:43Z,42.805,6.029,13.3000,4.60027,2470.063,2022-1-30T09:57:15Z
2022-01-30T07:58:46Z,42.805,6.029,13.3001,4.60031,2470.04,2022-1-30T10:00:19Z
2022-01-30T08:01:49Z,42.805,6.029,13.3000,4.60026,2469.993,2022-1-30T10:03:22Z
2022-01-30T08:04:53Z,42.805,6.029,13.3001,4.60027,2470.04,2022-1-30T10:06:25Z
2022-01-30T08:07:56Z,42.805,6.029,13.2998,4.60026,2470.017,2022-1-30T10:09:28Z
2022-01-30T08:10:59Z,42.805,6.029,13.3002,4.60028,2470.007,2022-1-30T10:12:31Z
2022-01-30T08:14:02Z,42.805,6.029,13.3003,4.60028,2470.053,2022-1-30T10:15:34Z
2022-01-30T08:17:05Z,42.805,6.029,13.3000,4.60027,2470.03,2022-1-30T10:18:37Z
2022-01-30T08:20:08Z,42.805,6.029,13.3000,4.60027,2470.017,2022-1-30T10:21:40Z
2022-01-30T08:23:11Z,42.805,6.029,13.3003,4.60031,2470.03,2022-1-30T10:24:44Z
2022-01-30T08:26:14Z,42.805,6.029,13.3001,4.60026,2469.993,2022-1-30T10:27:47Z
2022-01-30T08:29:18Z,42.805,6.029,13.2998,4.60029,2470.03,2022-1-30T10:30:50Z
2022-01-30T08:32:21Z,42.805,6.029,13.3004,4.60027,2469.993,2022-1-30T10:33:53Z
2022-01-30T08:35:24Z,42.805,6.029,13.2998,4.60027,2470.007,2022-1-30T10:36:56Z
2022-01-30T08:38:27Z,42.805,6.029,13.2999,4.60029,2470.017,2022-1-30T10:39:59Z
2022-01-30T08:41:30Z,42.805,6.029,13.2998,4.60026,2470.017,2022-1-30T10:43:02Z
2022-01-30T08:44:33Z,42.805,6.029,13.3003,4.60027,2469.993,2022-1-30T10:46:06Z
2022-01-30T08:47:36Z,42.805,6.029,13.3000,4.60028,2470.017,2022-1-30T10:49:09Z
2022-01-30T08:50:40Z,42.805,6.029,13.3000,4.60027,2469.993,2022-1-30T10:52:12Z
2022-01-30T08:53:43Z,42.805,6.029,13.3000,4.60028,2470.007,2022-1-30T10:55:15Z
2022-01-30T08:56:46Z,42.805,6.029,13.3001,4.60027,2469.979,2022-1-30T10:58:18Z
2022-01-30T08:59:49Z,42.805,6.029,13.2999,4.60026,2470.017,2022-1-30T11:01:21Z
2022-01-30T09:02:52Z,42.805,6.029,13.3006,4.60026,2469.993,2022-1-30T11:04:24Z
2022-01-30T09:05:55Z,42.805,6.029,13.3000,4.60026,2470.017,2022-1-30T11:07:27Z
2022-01-30T09:08:58Z,42.805,6.029,13.2999,4.60029,2470.007,2022-1-30T11:10:31Z
2022-01-30T09:12:01Z,42.805,6.029,13.3000,4.60025,2470.007,2022-1-30T11:13:34Z
2022-01-30T09:15:05Z,42.805,6.029,13.3003,4.60031,2469.947,2022-1-30T11:16:37Z
2022-01-30T09:18:08Z,42.805,6.029,13.2999,4.60026,2470.007,2022-1-30T11:19:40Z
2022-01-30T09:21:11Z,42.805,6.029,13.2998,4.60027,2469.984,2022-1-30T11:22:43Z
2022-01-30T09:24:14Z,42.805,6.029,13.3001,4.60027,2469.937,2022-1-30T11:25:46Z
2022-01-30T09:27:17Z,42.805,6.029,13.3004,4.60026,2469.984,2022-1-30T11:28:49Z
2022-01-30T09:30:20Z,42.805,6.029,13.3000,4.60026,2469.984,2022-1-30T11:31:52Z
2022-01-30T09:33:23Z,42.805,6.029,13.3002,4.60026,2469.984,2022-1-30T11:34:56Z
2022-01-30T09:36:26Z,42.805,6.029,13.3000,4.60026,2470.007,2022-1-30T11:37:59Z
2022-01-30T09:39:30Z,42.805,6.029,13.2998,4.60026,2469.993,2022-1-30T11:41:02Z
2022-01-30T09:42:33Z,42.805,6.029,13.3000,4.60026,2469.993,2022-1-30T11:44:05Z
2022-01-30T09:45:36Z,42.805,6.029,13.3000,4.60031,2469.97,2022-1-30T11:47:08Z
2022-01-30T09:48:39Z,42.805,6.029,13.3003,4.60026,2469.947,2022-1-30T11:50:11Z
2022-01-30T09:51:42Z,42.805,6.029,13.3003,4.60026,2469.947,2022-1-30T11:53:14Z
2022-01-30T09:54:45Z,42.805,6.029,13.2998,4.60026,2469.984,2022-1-30T11:56:17Z
2022-01-30T09:57:48Z,42.805,6.029,13.3004,4.60027,2469.947,2022-1-30T11:59:21Z
2022-01-30T10:00:51Z,42.805,6.029,13.3003,4.60026,2469.97,2022-1-30T12:02:24Z
2022-01-30T10:03:55Z,42.805,6.029,13.2997,4.60026,2469.947,2022-1-30T12:05:27Z
2022-01-30T10:06:58Z,42.805,6.029,13.3001,4.60026,2469.937,2022-1-30T12:08:30Z
2022-01-30T10:10:01Z,42.805,6.029,13.3003,4.60025,2469.947,2022-1-30T12:11:33Z
2022-01-30T10:13:04Z,42.805,6.029,13.2999,4.60026,2469.979,2022-1-30T12:14:36Z
2022-01-30T10:16:07Z,42.805,6.029,13.3003,4.60026,2469.96,2022-1-30T12:17:39Z
2022-01-30T10:19:10Z,42.805,6.029,13.3001,4.60025,2469.947,2022-1-30T12:20:42Z
2022-01-30T10:22:13Z,42.805,6.029,13.3002,4.60026,2469.947,2022-1-30T12:23:46Z
2022-01-30T10:25:16Z,42.805,6.029,13.3000,4.60028,2469.937,2022-1-30T12:26:49Z
2022-01-30T10:28:20Z,42.805,6.029,13.2996,4.60031,2469.97,2022-1-30T12:29:52Z
2022-01-30T10:31:23Z,42.805,6.029,13.3004,4.60027,2469.947,2022-1-30T12:32:55Z
2022-01-30T10:34:26Z,42.805,6.029,13.3002,4.60026,2469.947,2022-1-30T12:35:58Z
2022-01-30T10:37:29Z,42.805,6.029,13.3000,4.60026,2469.97,2022-1-30T12:39:01Z
2022-01-30T10:40:32Z,42.805,6.029,13.3002,4.60026,2469.947,2022-1-30T12:42:04Z
2022-01-30T10:43:35Z,42.805,6.029,13.3001,4.60026,2469.984,2022-1-30T12:45:08Z
2022-01-30T10:46:38Z,42.805,6.029,13.3002,4.60027,2469.96,2022-1-30T12:48:11Z
2022-01-30T10:49:42Z,42.805,6.029,13.3000,4.60025,2469.947,2022-1-30T12:51:14Z
2022-01-30T10:52:45Z,42.805,6.029,13.3000,4.60026,2469.914,2022-1-30T12:54:17Z
2022-01-30T10:55:48Z,42.805,6.029,13.3001,4.60026,2469.923,2022-1-30T12:57:20Z
2022-01-30T10:58:51Z,42.805,6.029,13.2998,4.60026,2469.984,2022-1-30T13:00:23Z
2022-01-30T11:01:54Z,42.805,6.029,13.2996,4.60027,2469.97,2022-1-30T13:03:26Z
2022-01-30T11:04:57Z,42.805,6.029,13.3002,4.60026,2469.947,2022-1-30T13:06:29Z
2022-01-30T11:08:00Z,42.805,6.029,13.3000,4.60026,2469.96,2022-1-30T13:09:33Z
2022-01-30T11:11:03Z,42.805,6.029,13.2999,4.60024,2469.97,2022-1-30T13:12:36Z
2022-01-30T11:14:07Z,42.805,6.029,13.2997,4.60026,2469.923,2022-1-30T13:15:39Z
2022-01-30T11:17:10Z,42.805,6.029,13.3000,4.60026,2469.9,2022-1-30T13:18:42Z
2022-01-30T11:20:13Z,42.805,6.029,13.2999,4.60026,2469.947,2022-1-30T13:21:45Z
2022-01-30T11:23:16Z,42.805,6.029,13.3004,4.60024,2469.947,2022-1-30T13:24:48Z
2022-01-30T11:26:19Z,42.805,6.029,13.3001,4.60024,2469.923,2022-1-30T13:27:51Z
2022-01-30T11:29:22Z,42.805,6.029,13.3001,4.60027,2469.923,2022-1-30T13:30:54Z
2022-01-30T11:32:25Z,42.805,6.029,13.3001,4.60024,2469.947,2022-1-30T13:33:58Z
2022-01-30T11:35:28Z,42.805,6.029,13.2997,4.60024,2469.9,2022-1-30T13:37:01Z
2022-01-30T11:38:32Z,42.805,6.029,13.2998,4.60026,2469.923,2022-1-30T13:40:04Z
2022-01-30T11:41:35Z,42.805,6.029,13.3003,4.60025,2469.947,2022-1-30T13:43:07Z
2022-01-30T11:44:38Z,42.805,6.029,13.2996,4.60031,2469.923,2022-1-30T13:46:10Z
2022-01-30T11:47:41Z,42.805,6.029,13.2999,4.60025,2469.923,2022-1-30T13:49:13Z
2022-01-30T11:50:44Z,42.805,6.029,13.2998,4.60026,2469.923,2022-1-30T13:52:16Z
2022-01-30T11:53:47Z,42.805,6.029,13.3000,4.60025,2469.914,2022-1-30T13:55:19Z
2022-01-30T11:56:50Z,42.805,6.029,13.2999,4.60025,2469.914,2022-1-30T13:58:23Z
2022-01-30T11:59:53Z,42.805,6.029,13.2999,4.60025,2469.914,2022-1-30T14:01:26Z
2022-01-30T12:02:57Z,42.805,6.029,13.3000,4.60024,2469.923,2022-1-30T14:04:29Z
2022-01-30T12:06:00Z,42.805,6.029,13.2997,4.60025,2469.914,2022-1-30T14:07:32Z
2022-01-30T12:09:03Z,42.805,6.029,13.3000,4.60025,2469.9,2022-1-30T14:10:35Z
2022-01-30T12:12:06Z,42.805,6.029,13.2998,4.60026,2469.9,2022-1-30T14:13:38Z
2022-01-30T12:15:09Z,42.805,6.029,13.2999,4.60025,2469.9,2022-1-30T14:16:41Z
2022-01-30T12:18:12Z,42.805,6.029,13.2995,4.60027,2469.89,2022-1-30T14:19:44Z
2022-01-30T12:21:15Z,42.805,6.029,13.3002,4.60029,2469.923,2022-1-30T14:22:48Z
2022-01-30T12:24:18Z,42.805,6.029,13.3000,4.60025,2469.909,2022-1-30T14:25:51Z
2022-01-30T12:27:22Z,42.805,6.029,13.3000,4.60026,2469.937,2022-1-30T14:28:54Z
2022-01-30T12:30:25Z,42.805,6.029,13.2998,4.60025,2469.923,2022-1-30T14:31:57Z
2022-01-30T12:33:28Z,42.805,6.029,13.3001,4.60026,2469.947,2022-1-30T14:35:00Z
2022-01-30T12:36:31Z,42.805,6.029,13.3000,4.60025,2469.923,2022-1-30T14:38:03Z
2022-01-30T12:39:34Z,42.805,6.029,13.2998,4.60024,2469.9,2022-1-30T14:41:06Z
2022-01-30T12:42:37Z,42.805,6.029,13.3002,4.60026,2469.923,2022-1-30T14:44:10Z
2022-01-30T12:45:40Z,42.805,6.029,13.2998,4.60026,2469.914,2022-1-30T14:47:13Z
2022-01-30T12:48:44Z,42.805,6.029,13.2996,4.60026,2469.923,2022-1-30T14:50:16Z
2022-01-30T12:51:47Z,42.805,6.029,13.3001,4.60025,2469.9,2022-1-30T14:53:19Z
2022-01-30T12:54:50Z,42.805,6.029,13.3001,4.60024,2469.9,2022-1-30T14:56:22Z
2022-01-30T12:57:53Z,42.805,6.029,13.3001,4.60025,2469.9,2022-1-30T14:59:25Z
2022-01-30T13:00:56Z,42.805,6.029,13.2998,4.60024,2469.9,2022-1-30T15:02:28Z
2022-01-30T13:03:59Z,42.805,6.029,13.3001,4.60024,2469.9,2022-1-30T15:05:31Z
2022-01-30T13:07:02Z,42.805,6.029,13.2998,4.60029,2469.923,2022-1-30T15:08:35Z
2022-01-30T13:10:05Z,42.805,6.029,13.3000,4.60025,2469.923,2022-1-30T15:11:38Z
2022-01-30T13:13:09Z,42.805,6.029,13.2997,4.60025,2469.937,2022-1-30T15:14:41Z
2022-01-30T13:16:12Z,42.805,6.029,13.3000,4.60025,2469.937,2022-1-30T15:17:44Z
2022-01-30T13:19:15Z,42.805,6.029,13.3003,4.60024,2469.937,2022-1-30T15:20:47Z
2022-01-30T13:22:18Z,42.805,6.029,13.2999,4.60024,2469.914,2022-1-30T15:23:50Z
2022-01-30T13:25:21Z,42.805,6.029,13.2998,4.60024,2469.937,2022-1-30T15:26:53Z
2022-01-30T13:28:24Z,42.805,6.029,13.2997,4.60024,2469.923,2022-1-30T15:29:56Z
2022-01-30T13:31:27Z,42.805,6.029,13.2997,4.60024,2469.923,2022-1-30T15:33:00Z
2022-01-30T13:34:30Z,42.805,6.029,13.3003,4.60025,2469.937,2022-1-30T15:36:03Z
2022-01-30T13:37:34Z,42.805,6.029,13.3000,4.60024,2469.923,2022-1-30T15:39:06Z
2022-01-30T13:40:37Z,42.805,6.029,13.3000,4.60025,2469.923,2022-1-30T15:42:09Z
2022-01-30T13:43:40Z,42.805,6.029,13.3000,4.60024,2469.937,2022-1-30T15:45:12Z
2022-01-30T13:46:43Z,42.805,6.029,13.3000,4.60024,2469.923,2022-1-30T15:48:15Z
2022-01-30T13:49:46Z,42.805,6.029,13.3004,4.60025,2469.947,2022-1-30T15:51:18Z
2022-01-30T13:52:49Z,42.805,6.029,13.3002,4.60024,2469.923,2022-1-30T15:54:21Z
2022-01-30T13:55:52Z,42.805,6.029,13.2998,4.60025,2469.937,2022-1-30T15:57:25Z
2022-01-30T13:58:55Z,42.805,6.029,13.2998,4.60024,2469.96,2022-1-30T16:00:28Z
2022-01-30T14:01:59Z,42.805,6.029,13.3003,4.60026,2469.96,2022-1-30T16:03:31Z
2022-01-30T14:05:02Z,42.805,6.029,13.2996,4.60024,2469.923,2022-1-30T16:06:34Z
2022-01-30T14:08:05Z,42.805,6.029,13.2998,4.60023,2469.947,2022-1-30T16:09:37Z
2022-01-30T14:11:08Z,42.805,6.029,13.2998,4.60023,2469.937,2022-1-30T16:12:40Z
2022-01-30T14:14:11Z,42.805,6.029,13.2998,4.60024,2469.923,2022-1-30T16:15:43Z
2022-01-30T14:17:14Z,42.805,6.029,13.3000,4.60024,2469.9,2022-1-30T16:18:46Z
2022-01-30T14:20:17Z,42.805,6.029,13.2998,4.60025,2469.984,2022-1-30T16:21:50Z
2022-01-30T14:23:20Z,42.805,6.029,13.2999,4.60024,2469.914,2022-1-30T16:24:53Z
2022-01-30T14:26:24Z,42.805,6.029,13.2994,4.60023,2469.937,2022-1-30T16:27:56Z
2022-01-30T14:29:27Z,42.805,6.029,13.2999,4.60023,2469.97,2022-1-30T16:30:59Z
2022-01-30T14:32:30Z,42.805,6.029,13.2998,4.60023,2469.947,2022-1-30T16:34:02Z
2022-01-30T14:35:33Z,42.805,6.029,13.2998,4.60024,2469.993,2022-1-30T16:37:05Z
2022-01-30T14:38:36Z,42.805,6.029,13.3002,4.60024,2469.923,2022-1-30T16:40:08Z
2022-01-30T14:41:39Z,42.805,6.029,13.3000,4.60024,2469.984,2022-1-30T16:43:11Z
2022-01-30T14:44:42Z,42.805,6.029,13.3001,4.60024,2469.984,2022-1-30T16:46:15Z
2022-01-30T14:47:45Z,42.805,6.029,13.2999,4.60024,2469.993,2022-1-30T16:49:18Z
2022-01-30T14:50:49Z,42.805,6.029,13.3000,4.60024,2469.909,2022-1-30T16:52:21Z
2022-01-30T14:53:52Z,42.805,6.029,13.3000,4.60024,2469.947,2022-1-30T16:55:24Z
2022-01-30T14:56:55Z,42.805,6.029,13.2994,4.60022,2470.017,2022-1-30T16:58:27Z
2022-01-30T14:59:58Z,42.805,6.029,13.3001,4.60024,2470.053,2022-1-30T17:01:30Z
2022-01-30T15:03:01Z,42.805,6.029,13.2998,4.60024,2469.96,2022-1-30T17:04:33Z
2022-01-30T15:06:04Z,42.805,6.029,13.3000,4.60024,2469.96,2022-1-30T17:07:36Z
2022-01-30T15:09:07Z,42.805,6.029,13.3000,4.60023,2470.017,2022-1-30T17:10:40Z
2022-01-30T15:12:11Z,42.805,6.029,13.2997,4.60024,2469.984,2022-1-30T17:13:43Z
2022-01-30T15:15:14Z,42.805,6.029,13.2998,4.60023,2469.97,2022-1-30T17:16:46Z